WB0RXX Weather Reports


Display with metric or nautical units.
time (UTC)temp
F
wind
direction
speed
MPH
gust
MPH
rain 1hr
in
rain 24hr
in
rain mn
in
humidity
%
barometer
mb
20260505060003 40 329 0.0 0.0 0.00 0.00 0.00 68 1009.3
20260505055003 40 329 0.0 0.0 0.00 0.00 0.00 67 1009.2
20260505054003 41 329 0.0 0.0 0.00 0.00 0.00 66 1009.2
20260505053004 41 329 0.0 0.0 0.00 0.00 0.00 64 1009.0
20260505052005 42 329 0.0 0.0 0.00 0.00 0.00 63 1008.9
20260505051003 42 329 0.0 0.0 0.00 0.00 0.00 61 1008.9
20260505041004 43 342 0.0 1.0 0.00 0.00 0.00 59 1008.7
20260505040005 44 342 0.0 0.0 0.00 0.00 0.00 58 1008.8
20260505035020 44 342 0.0 0.0 0.00 0.00 0.00 57 1008.7
20260505034003 44 346 0.0 3.0 0.00 0.00 0.00 57 1008.6
20260505033004 44 349 0.0 3.0 0.00 0.00 0.00 56 1008.6
20260505032005 45 340 0.0 0.0 0.00 0.00 0.00 55 1008.6
20260505031002 45 340 0.0 0.0 0.00 0.00 0.00 54 1008.5
20260505030004 46 340 0.0 1.0 0.00 0.00 0.00 53 1008.3
20260505025003 46 340 0.0 0.0 0.00 0.00 0.00 52 1008.2
20260505024003 46 340 0.0 1.0 0.00 0.00 0.00 52 1008.1
20260505023005 47 339 0.0 2.0 0.00 0.00 0.00 50 1008.0
20260505022004 47 339 0.0 0.0 0.00 0.00 0.00 50 1007.9
20260505021002 48 339 1.0 3.0 0.00 0.00 0.00 49 1007.7
20260505020003 48 332 0.0 2.0 0.00 0.00 0.00 48 1007.7
20260505015003 48 5 1.0 3.0 0.00 0.00 0.00 47 1007.6
20260505014003 49 9 3.0 3.0 0.00 0.00 0.00 46 1007.5
20260505013004 49 305 1.0 2.0 0.00 0.00 0.00 46 1007.5
20260505012004 50 328 4.0 7.0 0.00 0.00 0.00 44 1007.3
20260505011002 50 334 2.0 9.0 0.00 0.00 0.00 44 1007.1
20260505010003 50 331 5.0 8.0 0.00 0.00 0.00 43 1007.1
20260505005019 51 353 2.0 8.0 0.00 0.00 0.00 42 1006.9
20260505004003 51 328 6.0 11.0 0.00 0.00 0.00 42 1006.9
20260505003004 51 321 5.0 11.0 0.00 0.00 0.00 42 1006.9
20260505002020 51 331 4.0 7.0 0.00 0.00 0.00 43 1006.8
20260505001004 51 324 4.0 10.0 0.00 0.00 0.00 42 1006.8
20260505000004 51 329 6.0 11.0 0.00 0.00 0.00 41 1006.9
20260504235003 52 359 3.0 7.0 0.00 0.00 0.00 41 1006.9
20260504234005 52 291 4.0 13.0 0.00 0.00 0.00 41 1006.8
20260504233003 52 302 6.0 11.0 0.00 0.00 0.00 40 1006.7
20260504232006 52 325 7.0 14.0 0.00 0.00 0.00 40 1006.8
20260504231002 53 332 7.0 9.0 0.00 0.00 0.00 39 1006.8
20260504230018 54 335 6.0 9.0 0.00 0.00 0.00 38 1006.7
20260504225005 53 309 7.0 12.0 0.00 0.00 0.00 39 1006.6
20260504224005 53 301 7.0 13.0 0.00 0.00 0.00 39 1006.4
20260504223004 54 333 8.0 16.0 0.00 0.00 0.00 41 1006.4
20260504222020 54 347 9.0 19.0 0.00 0.00 0.00 39 1006.2
20260504221004 54 320 5.0 8.0 0.00 0.00 0.00 39 1006.2
20260504220003 55 331 9.0 14.0 0.00 0.00 0.00 38 1006.1
20260504215004 54 284 6.0 12.0 0.00 0.00 0.00 39 1005.8
20260504214004 54 314 6.0 9.0 0.00 0.00 0.00 40 1005.7
20260504213019 54 308 7.0 11.0 0.00 0.00 0.00 41 1005.9
20260504212004 54 323 3.0 8.0 0.00 0.00 0.00 42 1005.9
20260504211004 54 336 4.0 5.0 0.00 0.00 0.00 43 1005.8
20260504210005 55 337 10.0 14.0 0.00 0.00 0.00 42 1005.9
20260504205003 54 316 4.0 12.0 0.00 0.00 0.00 43 1005.7
20260504204004 54 343 9.0 19.0 0.00 0.00 0.00 44 1005.7
20260504203005 54 284 5.0 14.0 0.00 0.00 0.00 44 1005.5
20260504202004 55 306 8.0 16.0 0.00 0.00 0.00 43 1005.6
20260504201003 55 327 6.0 10.0 0.00 0.00 0.00 44 1005.6
20260504200004 56 271 5.0 13.0 0.00 0.00 0.00 46 1005.4
20260504195003 55 297 9.0 13.0 0.00 0.00 0.00 46 1005.2
20260504194003 56 349 8.0 12.0 0.00 0.00 0.00 46 1004.9
20260504193019 56 309 6.0 10.0 0.00 0.00 0.00 47 1004.8
20260504192005 56 315 7.0 22.0 0.00 0.00 0.00 46 1004.9
20260504191004 57 293 7.0 11.0 0.00 0.00 0.00 45 1004.8
20260504190003 57 313 9.0 17.0 0.00 0.00 0.00 45 1004.7
20260504185004 56 315 6.0 14.0 0.00 0.00 0.00 46 1004.5
20260504184004 56 314 7.0 12.0 0.00 0.00 0.00 46 1004.5
20260504183005 56 320 8.0 13.0 0.00 0.00 0.00 47 1004.4
20260504182005 56 292 7.0 17.0 0.00 0.00 0.00 47 1004.2
20260504181004 56 298 8.0 15.0 0.00 0.00 0.00 45 1004.2
20260504180004 56 309 6.0 12.0 0.00 0.00 0.00 46 1003.8
20260504175004 55 316 8.0 14.0 0.00 0.00 0.00 45 1003.7
20260504174004 55 301 5.0 10.0 0.00 0.00 0.00 47 1003.7
20260504173004 55 286 6.0 11.0 0.00 0.00 0.00 49 1003.5
20260504172004 56 321 6.0 11.0 0.00 0.00 0.00 49 1003.6
20260504171004 56 319 6.0 9.0 0.00 0.00 0.00 47 1003.7
20260504151004 56 339 3.0 5.0 0.00 0.00 0.00 54 1002.3
20260504141003 56 314 6.0 9.0 0.00 0.00 0.00 58 1001.6
20260504082003 58 243 5.0 8.0 0.00 0.00 0.00 44 997.8
20260504081003 57 211 5.0 5.0 0.00 0.00 0.00 45 998.0